Lancaster, PA

4:02 PM EDT on July 23, 2017 (GMT -0400)
Lancaster

Weather History for KLNS - May, 2014

Change the Weather History Date:

Tuesday, May 20, 2014

  Actual Average Record
Temperature  
Mean Temperature 59 °F -  
Max Temperature 73 °F 76 °F 89 °F (1998)
Min Temperature 46 °F 52 °F 39 °F (2002)
Degree Days  
Heating Degree Days 6    
Growing Degree Days 9 (Base 50)    
Moisture  
Dew Point 45 °F    
Average Humidity 57    
Maximum Humidity 86    
Minimum Humidity 31    
Precipitation  
Precipitation 0.01 in - - ()
Sea Level Pressure  
Sea Level Pressure 30.11 in    
Wind  
Wind Speed 4 mph (West)    
Max Wind Speed 13 mph    
Max Gust Speed -    
Visibility 10 miles    
Events Rain    
Averages and records for this station are not official NWS values.
T = Trace of Precipitation, MM = Missing Value Source: NWS Daily Summary

Daily Weather History Graph

Daily Weather History Graph

Search for Another Location

Airport or City:

Trip Planner

Search our weather history database for the weather conditions in past years. The results will help you decide how hot, cold, wet, or windy it might be!

Date:

Astronomy

May. 20, 2014 Rise Set
Actual Time 5:45 AM EDT 8:18 PM EDT
Civil Twilight 5:14 AM EDT 8:49 PM EDT
Nautical Twilight 4:35 AM EDT 9:28 PM EDT
Astronomical Twilight 3:52 AM EDT 10:12 PM EDT
Moon 12:47 AM EDT (5/20) 11:49 AM EDT (5/20)
Length of Visible Light 15h 35m
Length of Day
14h 33m
Waning Gibbous, 60% of the Moon is Illuminated
May 20
Waning Gibbous
May 21
Last Quarter
May 28
New
Jun 5
First Quarter
Jun 13
Full

Hourly Weather History & Observations

Time (EDT) Temp. Dew Point Humidity Pressure Visibility Wind Dir Wind Speed Gust Speed Precip Events Conditions
12:53 AM 55.0 °F 44.1 °F 67% 30.17 in 10.0 mi Calm Calm - N/A   Mostly Cloudy
2:53 AM 53.1 °F 45.0 °F 74% 30.17 in 10.0 mi WNW 3.5 mph - N/A   Clear
3:53 AM 50.0 °F 44.1 °F 80% 30.17 in 9.0 mi West 3.5 mph - N/A   Clear
5:53 AM 46.9 °F 43.0 °F 86% 30.19 in 7.0 mi Calm Calm - N/A   Clear
6:53 AM 50.0 °F 45.0 °F 83% 30.20 in 7.0 mi West 5.8 mph - N/A   Clear
7:53 AM 54.0 °F 46.9 °F 77% 30.20 in 7.0 mi West 5.8 mph - N/A   Clear
8:53 AM 60.1 °F 46.0 °F 60% 30.19 in 10.0 mi WNW 5.8 mph - N/A   Clear
9:53 AM 63.0 °F 46.9 °F 56% 30.18 in 10.0 mi WNW 3.5 mph - N/A   Clear
10:53 AM 66.0 °F 44.1 °F 45% 30.17 in 10.0 mi West 4.6 mph - N/A   Clear
11:53 AM - - N/A% 30.15 in - West 4.6 mph - N/A   Unknown
12:53 PM - - N/A% 30.13 in - North - - N/A   Unknown
1:53 PM 71.1 °F 43.0 °F 36% 30.10 in 10.0 mi SW 6.9 mph - N/A   Unknown
2:53 PM 71.1 °F 44.1 °F 38% 30.08 in 10.0 mi WNW 11.5 mph - N/A   Clear
3:53 PM 70.0 °F 45.0 °F 41% 30.06 in 10.0 mi West 11.5 mph - N/A   Clear
4:53 PM 72.0 °F 39.9 °F 31% 30.05 in 10.0 mi West 12.7 mph - N/A   Clear
5:53 PM 70.0 °F 41.0 °F 35% 30.04 in 10.0 mi WSW 10.4 mph - N/A   Clear
6:53 PM 69.1 °F 44.1 °F 40% 30.03 in 10.0 mi WSW 6.9 mph - N/A   Mostly Cloudy
7:53 PM 68.0 °F 44.1 °F 42% 30.03 in 10.0 mi SW 4.6 mph - N/A   Mostly Cloudy
8:53 PM 66.9 °F 45.0 °F 45% 30.03 in 10.0 mi SW 4.6 mph - N/A   Overcast
9:53 PM 64.9 °F 48.0 °F 54% 30.04 in 10.0 mi Calm Calm - N/A   Overcast
10:53 PM 62.1 °F 54.0 °F 75% 30.05 in 10.0 mi NE 5.8 mph - 0.00 in Rain Light Rain
11:53 PM 60.1 °F 54.0 °F 80% 30.05 in 9.0 mi Calm Calm - 0.01 in Rain Light Rain